SKY118 EHAM-EKCH

Flight info

Callsign SKY118
Flight time 0h 59m
Altitude 21000
Route ANDIK N873 JUIST DCT DOSUR P729 TUDLO
Aircraft A20N/M-SDE2E3FGHIRWXY/LB1

Departure

Time 2026-05-06 19:54
Airport Amsterdam Airport Schiphol (EHAM)

Arrival

Time 2026-05-06 20:54
Airport Copenhagen Kastrup Airport (EKCH)
Time Latitude Longitude Altitude Speed Heading
2026-05-06 19:16 52.32048 4.74498 -1 ft 0 kts 93°
2026-05-06 19:44 52.32048 4.74483 -1 ft 3 kts 93°
2026-05-06 19:44 52.32049 4.74449 -1 ft 3 kts 93°
2026-05-06 19:45 52.32050 4.74416 -1 ft 3 kts 93°
2026-05-06 19:45 52.32051 4.74382 -1 ft 3 kts 93°
2026-05-06 19:45 52.32057 4.74353 -1 ft 2 kts 146°
2026-05-06 19:45 52.32073 4.74350 -1 ft 3 kts 188°
2026-05-06 19:46 52.32075 4.74350 -1 ft 0 kts 188°
2026-05-06 19:49 52.32068 4.74349 -1 ft 4 kts 188°
2026-05-06 19:49 52.31981 4.74336 -1 ft 12 kts 187°
2026-05-06 19:49 52.31831 4.74314 -1 ft 30 kts 193°
2026-05-06 19:49 52.31593 4.74301 -1 ft 34 kts 186°
2026-05-06 19:50 52.31346 4.74279 -1 ft 34 kts 182°
2026-05-06 19:50 52.31102 4.74254 -1 ft 33 kts 184°
2026-05-06 19:50 52.30930 4.74225 -1 ft 6 kts 232°
2026-05-06 19:50 52.30915 4.74122 -1 ft 10 kts 315°
2026-05-06 19:51 52.30989 4.74078 -2 ft 9 kts 331°
2026-05-06 19:51 52.30992 4.74076 -2 ft 0 kts 331°
2026-05-06 19:51 52.31024 4.74048 -2 ft 10 kts 333°
2026-05-06 19:51 52.31116 4.73973 -2 ft 18 kts 336°
2026-05-06 19:52 52.31214 4.73895 -2 ft 17 kts 334°
2026-05-06 19:52 52.31324 4.73843 -3 ft 0 kts 11°
2026-05-06 19:53 52.31354 4.73844 -3 ft 23 kts
2026-05-06 19:53 52.31756 4.73882 -2 ft 90 kts
2026-05-06 19:53 52.32556 4.73953 -3 ft 138 kts
2026-05-06 19:54 52.33555 4.74050 355 ft 147 kts
2026-05-06 19:54 52.34454 4.74306 859 ft 145 kts 26°
2026-05-06 19:54 52.35290 4.75136 1501 ft 141 kts 31°
2026-05-06 19:54 52.36211 4.75923 1897 ft 158 kts 26°
2026-05-06 19:55 52.37278 4.76693 2193 ft 178 kts 27°
2026-05-06 19:55 52.38394 4.77842 2440 ft 201 kts 41°
2026-05-06 19:55 52.39416 4.79575 2837 ft 223 kts 48°
2026-05-06 19:55 52.40484 4.81532 3543 ft 234 kts 47°
2026-05-06 19:56 52.41570 4.83539 4581 ft 237 kts 53°
2026-05-06 19:56 52.42277 4.85989 5583 ft 243 kts 76°
2026-05-06 19:56 52.42314 4.88745 6542 ft 252 kts 100°
2026-05-06 19:56 52.41570 4.91393 7431 ft 263 kts 122°
2026-05-06 19:57 52.40670 4.94015 8325 ft 267 kts 105°
2026-05-06 19:57 52.40539 4.97040 9205 ft 271 kts 78°
2026-05-06 19:57 52.41280 4.99875 10053 ft 275 kts 50°
2026-05-06 19:57 52.42633 5.02095 10906 ft 278 kts 38°
2026-05-06 19:58 52.44161 5.04073 11773 ft 282 kts 36°
2026-05-06 19:58 52.45711 5.06087 12637 ft 287 kts 37°
2026-05-06 19:58 52.47229 5.08207 13465 ft 294 kts 39°
2026-05-06 19:58 52.48801 5.10551 13816 ft 318 kts 41°
2026-05-06 19:59 52.50463 5.13140 14054 ft 341 kts 42°
2026-05-06 19:59 52.52193 5.15892 14643 ft 350 kts 43°
2026-05-06 19:59 52.53949 5.18706 15396 ft 355 kts 43°
2026-05-06 19:59 52.55725 5.21561 16134 ft 360 kts 43°
2026-05-06 20:00 52.57530 5.24456 16863 ft 365 kts 43°
2026-05-06 20:00 52.59357 5.27386 17587 ft 370 kts 43°
2026-05-06 20:00 52.61211 5.30361 18318 ft 375 kts 43°
2026-05-06 20:00 52.63087 5.33373 18945 ft 379 kts 43°
2026-05-06 20:01 52.64962 5.36384 19567 ft 383 kts 43°
2026-05-06 20:01 52.66879 5.39466 20190 ft 387 kts 43°
2026-05-06 20:01 52.68818 5.42589 20565 ft 393 kts 43°
2026-05-06 20:01 52.70794 5.45775 20683 ft 405 kts 44°
2026-05-06 20:02 52.72855 5.49098 20795 ft 423 kts 44°
2026-05-06 20:02 52.74999 5.52559 20904 ft 439 kts 44°
2026-05-06 20:02 52.77225 5.56156 20955 ft 456 kts 44°
2026-05-06 20:02 52.79530 5.59882 20946 ft 470 kts 44°
2026-05-06 20:03 52.81868 5.63662 20951 ft 470 kts 44°
2026-05-06 20:03 52.84205 5.67450 20947 ft 470 kts 44°
2026-05-06 20:03 52.86503 5.71186 20952 ft 470 kts 44°
2026-05-06 20:03 52.88832 5.74984 20956 ft 470 kts 44°
2026-05-06 20:04 52.91158 5.78785 20958 ft 470 kts 44°
2026-05-06 20:04 52.93480 5.82591 20961 ft 469 kts 44°
2026-05-06 20:04 52.95794 5.86401 20959 ft 469 kts 44°
2026-05-06 20:04 52.98107 5.90225 20959 ft 469 kts 45°
2026-05-06 20:05 53.00417 5.94056 20960 ft 469 kts 45°
2026-05-06 20:05 53.02724 5.97887 20963 ft 469 kts 45°
2026-05-06 20:05 53.05003 6.01678 20961 ft 469 kts 45°
2026-05-06 20:05 53.07307 6.05514 20963 ft 469 kts 45°
2026-05-06 20:06 53.09615 6.09358 20961 ft 469 kts 45°
2026-05-06 20:06 53.11920 6.13201 20960 ft 469 kts 45°
2026-05-06 20:06 53.14230 6.17056 20958 ft 470 kts 45°
2026-05-06 20:06 53.16535 6.20905 20961 ft 470 kts 45°
2026-05-06 20:07 53.18845 6.24768 20964 ft 470 kts 45°
2026-05-06 20:07 53.21152 6.28631 20964 ft 470 kts 45°
2026-05-06 20:07 53.23458 6.32498 20961 ft 470 kts 45°
2026-05-06 20:07 53.25729 6.36312 20961 ft 470 kts 45°
2026-05-06 20:08 53.28032 6.40185 20961 ft 470 kts 45°
2026-05-06 20:08 53.30336 6.44066 20964 ft 470 kts 45°
2026-05-06 20:08 53.32652 6.47972 20963 ft 470 kts 45°
2026-05-06 20:08 53.34938 6.51833 20962 ft 470 kts 45°
2026-05-06 20:09 53.37222 6.55697 20962 ft 471 kts 46°
2026-05-06 20:09 53.39541 6.59627 20961 ft 471 kts 46°
2026-05-06 20:09 53.41842 6.63531 20960 ft 471 kts 46°
2026-05-06 20:09 53.44144 6.67445 20957 ft 472 kts 46°
2026-05-06 20:10 53.46416 6.71312 20957 ft 472 kts 46°
2026-05-06 20:10 53.48720 6.75238 20958 ft 472 kts 46°
2026-05-06 20:10 53.51023 6.79169 20958 ft 473 kts 46°
2026-05-06 20:10 53.53329 6.83112 20960 ft 473 kts 46°
2026-05-06 20:11 53.55635 6.87061 20959 ft 473 kts 46°
2026-05-06 20:11 53.57939 6.91013 20959 ft 473 kts 46°
2026-05-06 20:11 53.60242 6.94969 20957 ft 473 kts 46°
2026-05-06 20:11 53.62545 6.98931 20958 ft 473 kts 46°
2026-05-06 20:12 53.64811 7.02837 20958 ft 473 kts 46°
2026-05-06 20:12 53.67109 7.06804 20959 ft 472 kts 46°
2026-05-06 20:12 53.69405 7.10774 20952 ft 473 kts 46°
2026-05-06 20:12 53.71697 7.14743 20954 ft 473 kts 46°
2026-05-06 20:13 53.73992 7.18725 20949 ft 473 kts 46°
2026-05-06 20:13 53.76284 7.22707 20945 ft 472 kts 46°
2026-05-06 20:13 53.78576 7.26695 20949 ft 473 kts 46°
2026-05-06 20:13 53.80867 7.30688 20951 ft 473 kts 46°
2026-05-06 20:14 53.83159 7.34692 20953 ft 473 kts 46°
2026-05-06 20:14 53.85448 7.38696 20946 ft 473 kts 46°
2026-05-06 20:14 53.87701 7.42644 20950 ft 473 kts 46°
2026-05-06 20:14 53.89989 7.46659 20956 ft 473 kts 46°
2026-05-06 20:15 53.92274 7.50673 20955 ft 473 kts 46°
2026-05-06 20:15 53.94554 7.54688 20950 ft 473 kts 46°
2026-05-06 20:15 53.96836 7.58711 20955 ft 473 kts 46°
2026-05-06 20:15 53.99115 7.62738 20946 ft 474 kts 46°
2026-05-06 20:16 54.01397 7.66777 20955 ft 473 kts 46°
2026-05-06 20:16 54.03675 7.70816 20955 ft 473 kts 47°
2026-05-06 20:16 54.05923 7.74807 20959 ft 473 kts 47°
2026-05-06 20:16 54.08196 7.78848 20953 ft 473 kts 47°
2026-05-06 20:17 54.10467 7.82894 20955 ft 473 kts 47°
2026-05-06 20:17 54.12738 7.86946 20950 ft 473 kts 47°
2026-05-06 20:17 54.15008 7.91004 20951 ft 472 kts 47°
2026-05-06 20:17 54.17277 7.95066 20951 ft 473 kts 47°
2026-05-06 20:18 54.19542 7.99129 20955 ft 472 kts 47°
2026-05-06 20:18 54.21805 8.03196 20947 ft 473 kts 47°
2026-05-06 20:18 54.23303 8.05890 20949 ft 472 kts 47°
2026-05-06 20:18 54.26302 8.11295 20939 ft 472 kts 47°
2026-05-06 20:19 54.28558 8.15369 20949 ft 472 kts 47°
2026-05-06 20:19 54.30818 8.19455 20941 ft 473 kts 47°
2026-05-06 20:19 54.33076 8.23547 20943 ft 472 kts 47°
2026-05-06 20:19 54.35328 8.27636 20938 ft 472 kts 47°
2026-05-06 20:20 54.37584 8.31736 20940 ft 472 kts 47°
2026-05-06 20:20 54.39075 8.34451 20933 ft 472 kts 47°
2026-05-06 20:20 54.41325 8.38554 20936 ft 471 kts 47°
2026-05-06 20:20 54.44299 8.43987 20937 ft 472 kts 47°
2026-05-06 20:21 54.46545 8.48099 20937 ft 472 kts 47°
2026-05-06 20:21 54.48789 8.52213 20930 ft 472 kts 47°
2026-05-06 20:21 54.51033 8.56336 20938 ft 472 kts 47°
2026-05-06 20:21 54.53274 8.60459 20936 ft 472 kts 47°
2026-05-06 20:22 54.54760 8.63197 20938 ft 472 kts 47°
2026-05-06 20:22 54.57003 8.67335 20937 ft 472 kts 47°
2026-05-06 20:22 54.59246 8.71482 20942 ft 472 kts 47°
2026-05-06 20:22 54.61482 8.75623 20943 ft 472 kts 48°
2026-05-06 20:23 54.64447 8.81123 20941 ft 473 kts 48°
2026-05-06 20:23 54.65960 8.83937 20944 ft 473 kts 48°
2026-05-06 20:23 54.68918 8.89443 20941 ft 473 kts 48°
2026-05-06 20:23 54.70403 8.92214 20942 ft 473 kts 48°
2026-05-06 20:24 54.72637 8.96387 20942 ft 473 kts 48°
2026-05-06 20:24 54.74872 9.00568 20944 ft 473 kts 48°
2026-05-06 20:24 54.77107 9.04758 20945 ft 474 kts 48°
2026-05-06 20:24 54.79340 9.08950 20951 ft 474 kts 48°
2026-05-06 20:25 54.81576 9.13158 20947 ft 474 kts 48°
2026-05-06 20:25 54.83812 9.17371 20950 ft 474 kts 48°
2026-05-06 20:25 54.86044 9.21584 20951 ft 474 kts 48°
2026-05-06 20:25 54.88243 9.25743 20953 ft 474 kts 48°
2026-05-06 20:26 54.90472 9.29966 20956 ft 474 kts 48°
2026-05-06 20:26 54.92701 9.34196 20958 ft 474 kts 48°
2026-05-06 20:26 54.94926 9.38424 20960 ft 475 kts 48°
2026-05-06 20:26 54.97152 9.42665 20960 ft 475 kts 48°
2026-05-06 20:27 54.99381 9.46916 20960 ft 475 kts 48°
2026-05-06 20:27 55.01606 9.51166 20963 ft 475 kts 48°
2026-05-06 20:27 55.03829 9.55417 20965 ft 475 kts 49°
2026-05-06 20:27 55.06055 9.59678 20965 ft 475 kts 49°
2026-05-06 20:28 55.08225 9.63938 20967 ft 476 kts 52°
2026-05-06 20:28 55.10108 9.68683 20965 ft 476 kts 61°
2026-05-06 20:28 55.11576 9.73864 20965 ft 476 kts 70°
2026-05-06 20:28 55.12609 9.79351 20961 ft 476 kts 76°
2026-05-06 20:29 55.13515 9.84920 20967 ft 476 kts 76°
2026-05-06 20:29 55.14428 9.90474 20967 ft 476 kts 75°
2026-05-06 20:29 55.15375 9.96030 20968 ft 476 kts 74°
2026-05-06 20:29 55.16339 10.01524 20968 ft 476 kts 74°
2026-05-06 20:30 55.17322 10.07019 20967 ft 476 kts 73°
2026-05-06 20:30 55.19319 10.18106 20975 ft 476 kts 73°
2026-05-06 20:30 55.20304 10.23599 20978 ft 476 kts 73°
2026-05-06 20:31 55.21299 10.29177 20975 ft 477 kts 73°
2026-05-06 20:31 55.22273 10.34668 20977 ft 477 kts 73°
2026-05-06 20:31 55.23253 10.40225 20980 ft 477 kts 73°
2026-05-06 20:31 55.24226 10.45773 20982 ft 477 kts 73°
2026-05-06 20:32 55.25197 10.51332 20984 ft 477 kts 73°
2026-05-06 20:32 55.26164 10.56898 20979 ft 477 kts 73°
2026-05-06 20:32 55.27127 10.62464 20982 ft 477 kts 73°
2026-05-06 20:32 55.28076 10.67965 20984 ft 477 kts 73°
2026-05-06 20:33 55.29035 10.73530 20980 ft 477 kts 73°
2026-05-06 20:33 55.29995 10.79106 20976 ft 477 kts 73°
2026-05-06 20:33 55.30952 10.84688 20982 ft 477 kts 73°
2026-05-06 20:33 55.31906 10.90271 20979 ft 477 kts 73°
2026-05-06 20:34 55.32857 10.95856 20979 ft 477 kts 73°
2026-05-06 20:34 55.33800 11.01443 20977 ft 477 kts 73°
2026-05-06 20:34 55.34734 11.07038 20977 ft 477 kts 73°
2026-05-06 20:34 55.35663 11.12639 20983 ft 478 kts 74°
2026-05-06 20:35 55.36577 11.18170 20979 ft 478 kts 74°
2026-05-06 20:35 55.37500 11.23773 20980 ft 477 kts 74°
2026-05-06 20:35 55.38422 11.29386 20980 ft 477 kts 74°
2026-05-06 20:35 55.39342 11.35001 20978 ft 477 kts 74°
2026-05-06 20:36 55.40258 11.40610 20980 ft 477 kts 74°
2026-05-06 20:36 55.41175 11.46240 20981 ft 478 kts 74°
2026-05-06 20:36 55.42086 11.51854 20949 ft 476 kts 74°
2026-05-06 20:36 55.42999 11.57351 20601 ft 472 kts 71°
2026-05-06 20:37 55.44344 11.62577 19970 ft 467 kts 59°
2026-05-06 20:37 55.46248 11.67147 19246 ft 460 kts 46°
2026-05-06 20:37 55.48575 11.70940 18506 ft 452 kts 38°
2026-05-06 20:37 55.51002 11.74419 17695 ft 446 kts 37°
2026-05-06 20:38 55.53395 11.77832 16902 ft 440 kts 38°
2026-05-06 20:38 55.55725 11.81279 16106 ft 434 kts 39°
2026-05-06 20:38 55.57987 11.84744 15319 ft 428 kts 40°
2026-05-06 20:38 55.60170 11.88162 14561 ft 422 kts 41°
2026-05-06 20:39 55.62344 11.91601 13835 ft 416 kts 41°
2026-05-06 20:39 55.64485 11.95003 13007 ft 411 kts 41°
2026-05-06 20:39 55.66592 11.98357 12207 ft 405 kts 41°
2026-05-06 20:39 55.68663 12.01663 11637 ft 395 kts 42°
2026-05-06 20:40 55.70641 12.04836 11363 ft 371 kts 42°
2026-05-06 20:40 55.72319 12.08105 11118 ft 349 kts 58°
2026-05-06 20:40 55.73172 12.11967 10902 ft 328 kts 80°
2026-05-06 20:40 55.73212 12.15876 10708 ft 308 kts 97°
2026-05-06 20:41 55.72932 12.19514 10598 ft 287 kts 97°
2026-05-06 20:41 55.72686 12.22829 10589 ft 264 kts 96°
2026-05-06 20:41 55.72484 12.25922 10593 ft 241 kts 95°
2026-05-06 20:41 55.72315 12.28817 10590 ft 236 kts 95°
2026-05-06 20:42 55.72153 12.31709 10488 ft 234 kts 94°
2026-05-06 20:42 55.71991 12.34573 10175 ft 233 kts 94°
2026-05-06 20:42 55.71825 12.37430 9797 ft 232 kts 94°
2026-05-06 20:42 55.71656 12.40255 9397 ft 230 kts 94°
2026-05-06 20:43 55.71485 12.43053 8988 ft 227 kts 94°
2026-05-06 20:43 55.71314 12.45798 8601 ft 226 kts 94°
2026-05-06 20:43 55.71141 12.48546 8216 ft 223 kts 94°
2026-05-06 20:43 55.71184 12.51259 7837 ft 219 kts 74°
2026-05-06 20:44 55.71784 12.53705 7449 ft 216 kts 58°
2026-05-06 20:44 55.72530 12.56007 7084 ft 214 kts 59°
2026-05-06 20:44 55.73243 12.58316 6715 ft 213 kts 60°
2026-05-06 20:44 55.73923 12.60637 6358 ft 211 kts 62°
2026-05-06 20:45 55.74587 12.62955 5983 ft 210 kts 60°
2026-05-06 20:45 55.75402 12.65044 5618 ft 208 kts 47°
2026-05-06 20:45 55.76436 12.66824 5250 ft 207 kts 41°
2026-05-06 20:45 55.77483 12.68488 5094 ft 196 kts 41°
2026-05-06 20:46 55.78463 12.70014 5047 ft 174 kts 40°
2026-05-06 20:46 55.79310 12.71321 4984 ft 148 kts 40°
2026-05-06 20:46 55.80060 12.72477 4912 ft 144 kts 40°
2026-05-06 20:46 55.80827 12.73655 4605 ft 147 kts 40°
2026-05-06 20:47 55.81619 12.74874 4062 ft 156 kts 41°
2026-05-06 20:47 55.82328 12.76372 3460 ft 162 kts 66°
2026-05-06 20:47 55.82504 12.78316 2874 ft 165 kts 97°
2026-05-06 20:47 55.82067 12.80181 2303 ft 166 kts 129°
2026-05-06 20:48 55.81174 12.81249 2135 ft 149 kts 165°
2026-05-06 20:48 55.80194 12.81160 2010 ft 138 kts 188°
2026-05-06 20:48 55.79230 12.80855 1914 ft 140 kts 187°
2026-05-06 20:48 55.78279 12.80575 1901 ft 139 kts 186°
2026-05-06 20:49 55.77318 12.80310 1894 ft 140 kts 185°
2026-05-06 20:49 55.76376 12.80057 1899 ft 139 kts 185°
2026-05-06 20:49 55.75414 12.79801 1900 ft 140 kts 185°
2026-05-06 20:49 55.74454 12.79546 1898 ft 139 kts 185°
2026-05-06 20:50 55.73490 12.79287 1904 ft 140 kts 185°
2026-05-06 20:50 55.72530 12.79029 1906 ft 139 kts 185°
2026-05-06 20:50 55.71571 12.78768 1896 ft 139 kts 185°
2026-05-06 20:50 55.70613 12.78505 1904 ft 140 kts 185°
2026-05-06 20:51 55.69697 12.77912 1899 ft 143 kts 210°
2026-05-06 20:51 55.68941 12.76755 1899 ft 144 kts 219°
2026-05-06 20:51 55.68218 12.75572 1896 ft 144 kts 218°
2026-05-06 20:51 55.67474 12.74376 1899 ft 144 kts 218°
2026-05-06 20:52 55.66726 12.73181 1714 ft 150 kts 218°
2026-05-06 20:52 55.65907 12.71911 1011 ft 160 kts 216°
2026-05-06 20:52 55.65064 12.70694 600 ft 149 kts 217°
2026-05-06 20:52 55.64339 12.69491 384 ft 133 kts 218°
2026-05-06 20:53 55.63619 12.68422 297 ft 138 kts 219°
2026-05-06 20:53 55.62902 12.67319 142 ft 136 kts 219°
2026-05-06 20:53 55.62199 12.66222 32 ft 133 kts 220°
2026-05-06 20:53 55.61582 12.65278 16 ft 93 kts 223°
2026-05-06 20:54 55.61346 12.64895 21 ft 7 kts 262°
2026-05-06 20:54 55.61289 12.64752 21 ft 23 kts 233°
2026-05-06 20:54 55.61235 12.64506 19 ft 0 kts 242°
2026-05-06 20:59 55.61225 12.64469 18 ft 4 kts 249°
2026-05-06 20:59 55.61198 12.64321 17 ft 18 kts 251°
2026-05-06 21:00 55.61213 12.64124 16 ft 14 kts 326°
2026-05-06 21:00 55.61323 12.64164 19 ft 21 kts 37°
2026-05-06 21:00 55.61437 12.64295 24 ft 16 kts 32°
2026-05-06 21:00 55.61541 12.64414 25 ft 20 kts 33°
2026-05-06 21:01 55.61637 12.64524 24 ft 15 kts 33°
2026-05-06 21:01 55.61757 12.64555 23 ft 15 kts 350°
2026-05-06 21:01 55.61879 12.64513 23 ft 21 kts 348°
2026-05-06 21:01 55.62009 12.64472 20 ft 18 kts 349°
2026-05-06 21:02 55.62141 12.64426 18 ft 15 kts 351°
2026-05-06 21:02 55.62244 12.64396 17 ft 16 kts 352°
2026-05-06 21:02 55.62341 12.64437 19 ft 15 kts 20°
2026-05-06 21:02 55.62451 12.64479 19 ft 18 kts 14°
2026-05-06 21:03 55.62527 12.64383 21 ft 13 kts 304°
2026-05-06 21:03 55.62582 12.64354 23 ft 7 kts 323°
2026-05-06 21:03 55.62604 12.64365 23 ft 4 kts 56°
2026-05-06 21:03 55.62613 12.64391 21 ft 2 kts 56°
2026-05-06 21:04 55.62620 12.64406 21 ft 3 kts 47°
2026-05-06 21:04 55.62623 12.64412 21 ft 0 kts 47°